Skip Page Navigation
NASA JPL Caltech
NASA Logo - Jet Propulsion Laboratory + View the NASA Portal
+ Center for Near-Earth Object Studies
JPL Home Earth Solar System Stars & Galaxies Technology
JPL Solar System Dynamics
BODIES ORBITS EPHEMERIDES TOOLS PHYSICAL DATA DISCOVERY FAQ SITE MAP
IMPORTANT: The SSD Announcement email list is now available. Major changes are coming in the near future, including possible hostname and/or URL changes. To be notified of such changes, subscribe to this email list.

Please visit this page for more details.


JPL Small-Body Database Browser
Search: [ help ]  
35412 (1997 YN17)
Classification: Main-belt Asteroid          SPK-ID: 2035412
Ephemeris | Orbit Diagram | Orbital Elements | Mission Design | Physical Parameters | Discovery Circumstances | Close-Approach Data ]

[ show orbit diagram ]
Orbital Elements at Epoch 2458600.5 (2019-Apr-27.0) TDB
Reference: JPL 17 (heliocentric ecliptic J2000)
 Element Value Uncertainty (1-sigma)   Units 
e .173948070445045 4.092e-08  
a 2.389021956730763 9.3573e-09 au
q 1.973456197106601 1.0062e-07 au
i 1.314429134732936 4.8979e-06 deg
node 359.1090242193671 0.00014985 deg
peri 58.49720897204689 0.00015045 deg
M 315.750891406419 1.3246e-05 deg
tp 2458766.279438420482
(2019-Oct-09.77943842)
4.999e-05 TDB
period 1348.741245378018
3.69
7.9241e-06
2.17e-08
d
yr
n .2669155416086509 1.5682e-09 deg/d
Q 2.804587716354924 1.0985e-08 au
  Orbit Determination Parameters
   # obs. used (total)      884  
   data-arc span      11053 days (30.26 yr)  
   first obs. used      1987-01-27  
   last obs. used      2017-05-02  
   planetary ephem.      DE431  
   SB-pert. ephem.      SB431-N16  
   condition code      0  
   norm. resid. RMS      .55873  
   source      ORB  
   producer      Otto Matic  
   solution date      2017-May-15 15:16:47  

Additional Information
 Earth MOID = .985536 au 
 Jupiter MOID = 2.53183 au 
 T_jup = 3.512 
[ show covariance matrix ]

Ephemeris | Orbit Diagram | Orbital Elements | Mission Design | Physical Parameters | Discovery Circumstances | Close-Approach Data ]

Physical Parameter Table
Parameter Symbol Value Units Sigma Reference Notes
absolute magnitude H 15.7   n/a MPO351077  

35412 (1997 YN17)          Discovered 1997-Dec-31 by Spacewatch at Kitt Peak
Reference: 20020227/Numbers.arcLast Updated: 2004-04-19

[ show close-approach data ]
Alternate Designations
 1997 YN17 = 1987 BW = 2000 QA19 
Ephemeris | Orbit Diagram | Orbital Elements | Mission Design | Physical Parameters | Discovery Circumstances | Close-Approach Data ]
ABOUT SSD CREDITS/AWARDS PRIVACY/COPYRIGHT GLOSSARY LINKS
FirstGov 2019-Oct-21 16:31 UT
(server date/time)  
NASA Home Page
Site Manager:   Ryan S. Park
Webmaster  Alan B. Chamberlin